• Join FlightAware (Why Join?)
  • Login
  • US Flag GB Flag 
11:38 EST


 

Airport Tracker/Info


-or-


 

Live Flight TrackerFlight Track Log ✈ SKW6440 ✈ 29-Apr-2013 ✈ KLAX - KFAT

Flight Track Log - Related Links

Times and Time Zones

All times are in EDT time to prevent confusion due to time zone crossing. See the SKW6440 flight status page for this flight to view local times or setup timezone preferences in your user account.

Time Position Orientation Groundspeed Altitude Reporting Facility
EDT Latitude Longitude Course Direction KTS MPH feet Rate Location/Type
01:58 33.9500 -118.4500 262° West 162 186 1,300  Level Southern California TRACON
01:59 33.9406 -118.5317 262° West 207 238 3,400 2,160 Climbing Los Angeles Center
02:00 33.9319 -118.6178 263° West 258 297 6,000 2,520 Climbing Los Angeles Center
02:01 33.9203 -118.7081 261° West 272 313 8,500 2,220 Climbing Los Angeles Center
02:02 33.9122 -118.7944 264° West 277 319 10,500 1,620 Climbing Los Angeles Center
02:03 33.9017 -118.8914 263° West 300 345 11,900 1,620 Climbing Los Angeles Center
02:04 33.9269 -118.9847 288° West 316 364 13,800 1,560 Climbing Los Angeles Center
02:06 34.0780 -118.9833 North  Level FlightAware Approximate
02:07 34.1919 -118.9992 North 347 399 18,300  Level Los Angeles Center
02:08 34.3081 -119.0014 359° North 349 402 20,000 1,380 Climbing Los Angeles Center
02:09 34.4089 -119.0033 359° North 361 415 21,200 1,200 Climbing Los Angeles Center
02:10 34.5311 -119.0053 359° North 365 420 22,500 1,140 Climbing Los Angeles Center
02:11 34.6353 -119.0067 359° North 374 430 23,600 720 Climbing Los Angeles Center
02:12 34.7425 -119.0067 360° North 384 442 24,000 180 Climbing Los Angeles Center
02:13 34.8550 -119.0083 359° North 401 461 24,000  Level Los Angeles Center
02:14 34.9561 -119.0089 360° North 402 463 24,000  Level Los Angeles Center
02:15 35.0703 -119.0108 359° North 409 471 24,000  Level Los Angeles Center
02:16 35.1839 -119.0108 360° North 410 472 24,000  Level Los Angeles Center
02:17 35.2964 -119.0131 359° North 408 470 24,000  Level Los Angeles Center
02:18 35.4250 -119.0147 359° North 392 451 24,000 -240 Level Los Angeles Center
02:19 35.5331 -119.0167 359° North 389 448 23,600 -1,020 Descending Los Angeles Center
02:20 35.6419 -119.0178 360° North 392 451 22,000 -1,500 Descending Los Angeles Center
02:21 35.7047 -119.0161 North 392 451 21,100 -1,440 Descending Oakland Center
02:22 35.8106 -119.0189 359° North 385 443 19,600 -1,620 Descending Oakland Center
02:23 35.9094 -119.0208 359° North 368 423 17,900 -1,620 Descending Oakland Center
02:24 36.0036 -119.0614 341° North 364 419 16,400 -1,500 Descending Oakland Center
02:25 36.0961 -119.1069 338° Northwest 361 415 14,900 -1,260 Descending Oakland Center
02:26 36.2042 -119.1581 339° North 354 407 13,900 -1,020 Descending Oakland Center
02:27 36.2889 -119.1969 340° North 329 379 12,900 -1,140 Descending Oakland Center
02:28 36.3669 -119.2353 338° Northwest 303 349 11,700 -1,500 Descending Oakland Center
02:29 36.4381 -119.2689 339° North 280 322 9,900 -1,860 Descending Oakland Center
02:30 36.5083 -119.3031 339° North 272 313 8,000 -1,800 Descending Oakland Center
02:31 36.5681 -119.3525 326° Northwest 265 305 6,300 -1,740 Descending Oakland Center
02:32 36.6125 -119.4272 307° West 268 308 4,600 -1,680 Descending Oakland Center
02:33 36.6525 -119.4972 305° West 256 295 3,000 -900 Descending Oakland Center
02:34 36.6872 -119.5617 304° West 214 246 2,900 -300 Descending Oakland Center
02:35 36.7131 -119.6089 304° West 175 201 2,400 -600 Descending Oakland Center
02:36 36.7381 -119.6533 305° West 164 189 1,800 -840 Descending Oakland Center
02:37 36.7592 -119.6903 306° West 127 146 800 -780 Descending Oakland Center
02:38 36.7806 -119.7281 305° West 127 146 300 -540 Descending Oakland Center
02:40 36.7764 -119.7187 North  Level Estimated